Precipitable_Water
0.14 0.13 0.13 0.12 0.12 0.11 0.10 0.09 0.08 0.08 0.07 0.07 0.07 0.07 0.07 0.07 0.07 0.07 0.06 0.06 0.06 0.06 0.06 0.06 0.05 0.05 0.05 0.05 0.05 0.05 0.05 0.05 0.05 0.05 0.05 0.05 0.05 0.05 0.05 0.06 0.06 0.06
0.14 0.14 0.13 0.13 0.12 0.11 0.10 0.09 0.08 0.08 0.07 0.07 0.07 0.07 0.07 0.07 0.07 0.06 0.06 0.06 0.06 0.06 0.06 0.05 0.05 0.05 0.05 0.05 0.05 0.05 0.05 0.05 0.05 0.05 0.05 0.05 0.05 0.05 0.05 0.06 0.06 0.06
0.14 0.14 0.13 0.13 0.12 0.11 0.10 0.09 0.08 0.08 0.08 0.07 0.07 0.07 0.07 0.07 0.07 0.06 0.06 0.06 0.06 0.06 0.05 0.05 0.05 0.05 0.05 0.05 0.05 0.05 0.05 0.05 0.05 0.05 0.05 0.05 0.05 0.05 0.06 0.06 0.06 0.06
0.14 0.14 0.13 0.12 0.11 0.10 0.09 0.09 0.08 0.08 0.08 0.07 0.07 0.07 0.07 0.07 0.07 0.06 0.06 0.06 0.06 0.05 0.05 0.05 0.04 0.05 0.05 0.05 0.05 0.05 0.05 0.05 0.05 0.05 0.05 0.05 0.06 0.06 0.06 0.06 0.06 0.06
0.14 0.14 0.13 0.12 0.11 0.10 0.09 0.08 0.08 0.08 0.08 0.08 0.07 0.07 0.07 0.07 0.07 0.06 0.06 0.06 0.05 0.05 0.05 0.05 0.05 0.05 0.05 0.05 0.05 0.05 0.05 0.05 0.05 0.05 0.05 0.05 0.06 0.06 0.06 0.06 0.06 0.06
0.15 0.14 0.13 0.12 0.11 0.10 0.09 0.08 0.08 0.08 0.08 0.07 0.07 0.07 0.07 0.07 0.07 0.06 0.06 0.05 0.05 0.05 0.05 0.05 0.05 0.05 0.05 0.05 0.05 0.05 0.05 0.05 0.05 0.05 0.05 0.05 0.06 0.06 0.06 0.06 0.06 0.06
0.15 0.13 0.12 0.11 0.10 0.09 0.08 0.08 0.08 0.08 0.08 0.08 0.07 0.07 0.07 0.07 0.06 0.06 0.06 0.05 0.05 0.05 0.05 0.05 0.05 0.05 0.05 0.05 0.05 0.05 0.05 0.05 0.05 0.06 0.06 0.06 0.06 0.06 0.06 0.06 0.06 0.06
0.14 0.13 0.12 0.11 0.09 0.09 0.08 0.08 0.08 0.08 0.08 0.08 0.07 0.07 0.07 0.07 0.06 0.06 0.06 0.05 0.05 0.05 0.05 0.05 0.05 0.05 0.05 0.05 0.05 0.05 0.05 0.05 0.05 0.06 0.06 0.06 0.06 0.06 0.06 0.06 0.06 0.06
0.13 0.12 0.11 0.10 0.09 0.09 0.08 0.08 0.08 0.08 0.08 0.08 0.07 0.07 0.07 0.07 0.06 0.06 0.06 0.05 0.05 0.05 0.05 0.05 0.05 0.05 0.05 0.05 0.05 0.05 0.05 0.05 0.06 0.06 0.06 0.06 0.06 0.06 0.06 0.06 0.06 0.06
0.12 0.11 0.10 0.09 0.09 0.08 0.08 0.08 0.08 0.08 0.08 0.08 0.07 0.07 0.07 0.07 0.06 0.06 0.06 0.05 0.05 0.05 0.05 0.05 0.05 0.05 0.05 0.05 0.05 0.05 0.05 0.05 0.06 0.06 0.06 0.06 0.06 0.06 0.06 0.06 0.06 0.06
0.12 0.11 0.10 0.09 0.09 0.08 0.08 0.08 0.08 0.08 0.08 0.08 0.07 0.07 0.07 0.06 0.06 0.06 0.06 0.06 0.05 0.05 0.05 0.05 0.05 0.05 0.05 0.05 0.05 0.05 0.05 0.06 0.06 0.06 0.06 0.06 0.06 0.06 0.06 0.06 0.06 0.06
0.11 0.10 0.09 0.09 0.09 0.08 0.08 0.08 0.08 0.08 0.08 0.08 0.07 0.07 0.07 0.06 0.06 0.06 0.06 0.06 0.05 0.05 0.05 0.05 0.05 0.05 0.05 0.05 0.05 0.05 0.06 0.06 0.06 0.06 0.06 0.06 0.06 0.06 0.06 0.06 0.06 0.06
0.10 0.10 0.09 0.09 0.09 0.08 0.08 0.08 0.08 0.08 0.08 0.07 0.07 0.07 0.07 0.06 0.06 0.06 0.06 0.06 0.06 0.05 0.05 0.05 0.05 0.05 0.05 0.05 0.05 0.05 0.06 0.06 0.06 0.06 0.06 0.06 0.06 0.06 0.06 0.07 0.07 0.07
0.10 0.10 0.09 0.09 0.09 0.09 0.08 0.08 0.08 0.08 0.08 0.07 0.07 0.07 0.07 0.07 0.06 0.06 0.06 0.06 0.06 0.05 0.05 0.05 0.05 0.05 0.06 0.06 0.06 0.06 0.06 0.06 0.06 0.05 0.06 0.06 0.06 0.06 0.07 0.07 0.07 0.07
0.10 0.10 0.09 0.09 0.09 0.09 0.08 0.08 0.08 0.08 0.08 0.07 0.07 0.07 0.07 0.07 0.07 0.06 0.06 0.06 0.06 0.06 0.05 0.05 0.05 0.06 0.06 0.06 0.06 0.06 0.06 0.05 0.05 0.06 0.06 0.06 0.07 0.07 0.07 0.07 0.07 0.08
0.10 0.10 0.09 0.09 0.09 0.08 0.08 0.08 0.08 0.08 0.08 0.07 0.07 0.07 0.07 0.07 0.07 0.07 0.06 0.06 0.06 0.05 0.05 0.05 0.06 0.06 0.06 0.06 0.06 0.07 0.07 0.07 0.07 0.07 0.07 0.07 0.07 0.07 0.07 0.08 0.08 0.08
0.10 0.10 0.09 0.09 0.09 0.08 0.08 0.08 0.08 0.08 0.08 0.07 0.07 0.07 0.07 0.07 0.07 0.06 0.06 0.06 0.06 0.05 0.05 0.05 0.06 0.06 0.06 0.07 0.07 0.08 0.08 0.08 0.08 0.08 0.08 0.08 0.08 0.08 0.07 0.08 0.08 0.08
0.10 0.09 0.09 0.09 0.09 0.08 0.08 0.08 0.08 0.08 0.08 0.07 0.07 0.07 0.07 0.07 0.07 0.06 0.06 0.06 0.06 0.06 0.05 0.05 0.06 0.06 0.06 0.07 0.08 0.08 0.08 0.08 0.08 0.08 0.08 0.08 0.08 0.08 0.08 0.08 0.08 0.08
0.10 0.09 0.09 0.09 0.08 0.08 0.08 0.08 0.08 0.08 0.08 0.07 0.07 0.07 0.07 0.07 0.07 0.07 0.06 0.06 0.06 0.06 0.05 0.05 0.05 0.06 0.07 0.07 0.07 0.08 0.08 0.08 0.08 0.08 0.08 0.08 0.08 0.08 0.08 0.08 0.08 0.08
0.10 0.09 0.09 0.09 0.09 0.08 0.08 0.08 0.08 0.08 0.08 0.08 0.08 0.08 0.07 0.07 0.07 0.07 0.06 0.06 0.06 0.06 0.05 0.05 0.05 0.06 0.06 0.07 0.07 0.08 0.08 0.08 0.08 0.08 0.08 0.08 0.08 0.08 0.08 0.08 0.08 0.08
0.09 0.09 0.09 0.09 0.09 0.08 0.08 0.08 0.08 0.08 0.08 0.08 0.08 0.07 0.07 0.07 0.07 0.06 0.06 0.06 0.06 0.06 0.06 0.05 0.06 0.06 0.07 0.07 0.08 0.08 0.08 0.08 0.08 0.08 0.08 0.08 0.08 0.08 0.09 0.08 0.08 0.08
0.09 0.09 0.09 0.09 0.09 0.08 0.08 0.08 0.08 0.08 0.08 0.08 0.08 0.08 0.08 0.07 0.07 0.07 0.06 0.06 0.06 0.06 0.06 0.05 0.06 0.06 0.07 0.07 0.08 0.08 0.08 0.08 0.08 0.08 0.08 0.08 0.08 0.08 0.08 0.08 0.08 0.08
0.09 0.09 0.09 0.09 0.09 0.08 0.08 0.08 0.08 0.08 0.08 0.08 0.08 0.08 0.07 0.07 0.07 0.07 0.06 0.06 0.06 0.06 0.06 0.06 0.06 0.06 0.06 0.07 0.07 0.08 0.08 0.08 0.07 0.07 0.08 0.08 0.08 0.08 0.08 0.08 0.08 0.08
0.09 0.09 0.09 0.09 0.09 0.08 0.08 0.08 0.08 0.08 0.08 0.08 0.08 0.07 0.07 0.07 0.07 0.07 0.07 0.06 0.06 0.06 0.06 0.06 0.05 0.06 0.06 0.07 0.07 0.08 0.08 0.07 0.08 0.07 0.08 0.08 0.08 0.08 0.08 0.08 0.08 0.08
0.09 0.09 0.09 0.09 0.08 0.08 0.08 0.08 0.08 0.08 0.08 0.08 0.08 0.08 0.08 0.08 0.07 0.07 0.06 0.06 0.06 0.06 0.06 0.06 0.06 0.06 0.06 0.07 0.07 0.07 0.07 0.07 0.07 0.07 0.08 0.08 0.08 0.08 0.08 0.08 0.08 0.08
0.09 0.09 0.09 0.09 0.08 0.08 0.08 0.08 0.08 0.08 0.08 0.08 0.08 0.08 0.08 0.07 0.07 0.07 0.06 0.06 0.06 0.06 0.06 0.06 0.06 0.06 0.06 0.06 0.07 0.07 0.07 0.08 0.08 0.08 0.08 0.08 0.08 0.08 0.07 0.07 0.07 0.07
Wind_Speed
45 45 46 47 48 49 50 51 52 52 52 52 52 52 53 53 54 54 55 56 55 55 54 53 53 53 53 52 51 50 49 49 49 48 48 48 48 49 49 49 49 49
45 46 47 48 49 50 50 51 52 52 52 52 52 53 53 53 54 54 55 55 55 54 53 53 52 52 51 50 49 48 47 46 46 46 45 45 45 46 46 47 47 47
46 46 47 48 49 50 51 51 52 52 52 52 52 53 53 53 54 54 55 55 54 53 52 52 51 50 49 48 47 46 45 44 44 43 43 43 43 43 44 44 44 45
46 47 48 49 50 50 51 51 52 52 52 52 52 53 53 53 54 54 55 54 53 52 52 51 50 48 47 46 45 44 43 43 42 42 42 42 42 42 42 42 42 43
46 47 48 49 50 50 51 51 52 52 52 52 52 53 53 53 54 54 54 53 52 51 51 50 48 47 45 44 43 42 42 41 41 41 41 41 41 41 41 41 41 41
47 47 48 49 50 50 51 51 51 52 52 52 52 53 53 53 53 54 53 52 51 50 50 48 47 45 44 43 42 41 40 40 40 40 40 40 40 40 40 40 40 40
47 48 48 49 50 50 51 51 51 52 52 52 52 52 53 53 53 53 53 52 50 49 48 47 45 44 42 41 40 40 39 39 39 39 39 39 39 39 39 39 39 39
47 48 49 49 50 51 51 51 51 52 52 52 52 52 52 53 53 53 52 51 50 49 47 46 44 43 41 40 39 39 38 38 38 38 38 38 38 37 37 37 38 38
47 48 49 49 50 50 51 51 51 52 52 52 52 52 52 52 52 52 51 50 49 48 46 45 43 41 40 39 38 38 37 37 37 37 37 37 37 37 36 36 37 37
47 48 49 49 50 50 51 51 51 52 52 52 52 52 52 52 52 51 50 49 48 47 46 44 42 40 39 38 37 37 37 36 36 36 36 36 36 36 36 36 36 36
47 48 49 49 50 50 50 51 51 51 52 52 52 52 52 51 51 51 50 49 47 46 45 43 41 39 38 38 37 36 36 36 36 35 35 35 35 35 35 35 35 36
47 48 49 49 50 50 50 50 51 51 51 51 51 51 51 51 51 50 49 48 47 46 44 42 40 39 38 37 36 36 35 35 35 34 34 34 34 34 34 34 35 35
47 48 49 49 49 50 50 50 51 51 51 51 51 51 51 51 50 50 49 48 46 45 44 42 40 38 37 37 36 35 35 34 34 34 33 33 33 33 34 34 35 36
47 48 48 49 49 49 50 50 51 51 51 51 51 51 51 51 50 49 48 47 46 45 43 41 39 38 37 36 36 35 35 35 34 33 33 33 33 33 34 34 35 36
47 48 48 48 49 49 50 50 51 51 51 51 51 51 51 50 50 49 48 47 46 45 43 41 39 38 37 37 36 36 35 35 34 33 33 33 33 34 34 35 36 37
47 48 48 48 49 49 50 50 51 51 51 51 51 51 50 50 50 49 48 46 46 44 42 40 39 38 37 37 37 36 35 34 34 33 33 33 34 34 35 35 36 37
47 47 48 48 49 49 50 50 51 51 51 51 51 51 50 50 49 49 47 46 46 44 42 40 38 38 38 38 37 37 36 35 34 34 33 34 34 35 35 35 36 37
47 47 48 48 49 49 50 50 51 51 51 51 51 51 50 50 49 48 47 46 45 44 42 40 38 38 38 38 37 37 36 35 34 34 33 34 34 34 35 35 36 37
47 47 48 48 49 50 50 50 50 51 51 51 51 51 50 50 49 48 47 46 45 43 42 39 38 38 38 38 37 37 37 36 35 34 34 34 34 34 35 35 36 37
46 47 48 49 49 50 50 50 50 51 50 51 51 51 50 50 49 48 47 45 44 43 41 39 38 38 38 38 37 37 37 36 35 34 34 34 34 34 35 35 36 37
46 47 48 49 49 49 50 50 50 50 50 51 51 50 50 49 48 47 46 45 44 42 41 39 38 37 38 37 37 36 36 36 35 34 34 34 34 35 35 36 36 37
46 47 48 49 49 49 50 50 50 50 50 51 51 51 50 49 48 47 46 45 43 42 40 39 37 37 37 37 36 36 36 35 34 34 34 34 34 35 35 35 36 36
47 47 48 49 49 49 50 50 50 50 50 50 51 50 50 48 48 47 45 44 43 41 39 38 37 37 37 36 36 36 35 34 34 34 33 34 34 34 34 35 35 36
47 47 48 49 49 49 50 50 50 50 50 50 50 50 49 48 47 46 45 43 42 40 39 38 36 36 36 36 35 35 35 34 33 33 33 33 33 33 34 34 35 36
47 48 48 49 49 50 50 50 50 50 50 50 50 50 49 48 47 46 44 43 41 39 38 37 36 35 35 35 35 35 34 33 33 33 33 33 33 33 33 34 34 35
47 48 48 49 49 50 50 50 50 50 50 50 50 49 48 47 46 45 44 42 40 38 37 36 35 34 34 35 34 34 33 33 32 32 32 32 32 32 33 33 33 34
Wind_Direction
307 307 308 308 309 309 310 310 310 310 309 309 308 307 307 307 306 306 306 305 304 302 301 299 298 297 295 293 291 289 287 285 283 280 278 276 275 274 273 272 272 271
306 307 308 308 309 310 310 310 310 310 310 309 308 308 308 307 307 307 307 306 305 303 302 301 299 297 295 293 291 289 287 285 283 281 278 277 276 274 274 273 272 272
306 307 307 308 309 310 310 310 310 310 310 309 309 308 308 308 308 308 307 307 305 304 303 302 300 298 296 293 291 289 287 286 283 281 279 278 277 276 275 274 273 272
305 306 307 308 309 310 310 310 310 310 310 310 309 309 309 309 309 308 308 307 306 305 304 302 300 298 296 294 292 290 288 286 284 281 280 278 277 276 276 275 274 273
305 306 307 308 309 310 310 310 310 310 310 310 310 309 309 309 309 309 309 308 307 305 304 303 301 298 296 294 292 290 288 286 284 282 281 279 278 277 276 275 274 274
305 306 307 308 309 310 310 310 310 310 310 310 310 310 310 310 310 310 309 309 307 306 305 303 301 298 296 294 293 291 289 287 285 283 282 281 279 278 277 276 275 274
305 306 308 309 309 310 310 310 310 310 310 310 310 310 310 310 310 310 310 309 308 307 305 303 301 298 296 295 293 291 289 287 286 284 283 282 280 279 277 276 275 275
305 307 308 309 310 310 310 310 311 310 310 310 310 310 310 310 310 310 310 309 308 307 305 303 300 298 296 295 293 291 289 288 287 285 284 282 281 279 278 277 276 275
305 307 308 309 310 310 310 310 311 311 310 311 311 310 310 310 310 310 310 309 308 307 305 303 300 297 296 294 293 291 290 289 287 286 284 282 280 279 278 278 277 276
306 307 308 309 310 310 310 310 311 311 311 311 311 311 311 310 310 310 309 309 308 306 305 302 299 297 295 294 292 291 290 289 288 286 284 282 280 279 278 278 277 277
306 307 308 309 310 310 310 310 311 311 311 311 311 311 311 311 310 310 309 308 307 306 304 301 299 296 295 293 292 291 290 289 288 286 284 282 281 279 278 278 277 277
306 307 308 309 310 310 310 311 311 311 311 311 311 311 311 311 310 310 309 308 307 306 303 301 297 295 294 293 292 291 290 289 288 286 284 282 281 280 279 278 278 278
306 308 309 309 310 310 310 311 311 311 312 311 311 311 311 311 310 310 309 308 307 305 303 299 296 294 293 292 291 290 290 289 287 286 284 283 281 280 279 279 279 279
307 308 309 310 310 310 310 311 311 311 312 312 311 311 311 311 310 310 309 307 306 305 302 298 295 293 292 291 291 290 289 288 287 286 284 283 282 281 281 280 281 281
307 308 309 310 310 310 310 311 311 312 312 312 312 311 311 311 310 310 309 307 306 304 301 297 294 292 291 290 290 290 289 288 287 286 284 283 282 282 282 282 282 283
308 308 309 310 310 310 310 311 311 312 312 312 312 312 311 311 310 310 309 307 306 304 300 296 292 291 289 289 289 289 288 287 286 285 284 284 283 283 283 284 284 285
308 309 309 310 310 310 310 311 312 312 312 312 312 312 312 311 310 309 308 307 305 303 300 296 292 289 288 288 288 287 287 287 286 285 284 284 284 284 285 286 286 286
308 309 309 310 310 310 311 311 312 312 312 312 312 312 312 311 310 309 308 307 305 303 300 295 292 289 287 287 287 286 286 286 285 285 285 285 285 285 286 287 287 287
308 309 309 310 310 311 311 312 312 312 312 312 312 312 312 311 310 309 308 307 305 303 300 296 291 288 287 286 286 285 285 285 285 285 286 286 286 287 287 288 288 288
309 309 310 310 311 311 312 312 312 312 312 312 312 312 312 311 310 309 308 307 305 303 300 296 291 288 286 285 285 285 284 284 284 285 286 286 287 287 288 288 289 289
309 309 310 311 311 312 312 312 312 312 312 312 313 312 312 311 310 309 308 307 305 303 299 296 292 288 286 285 284 284 284 284 284 285 286 286 287 287 288 289 290 290
309 310 311 311 312 312 312 312 312 313 313 313 313 312 312 311 310 309 308 306 305 302 299 296 292 289 286 285 284 284 283 283 284 284 285 286 287 287 288 289 290 291
310 311 311 312 312 312 312 313 313 313 313 313 313 313 312 311 310 309 308 306 304 302 299 296 293 289 286 284 284 283 283 283 283 284 285 286 287 288 289 290 291 292
311 311 312 313 313 313 313 313 313 313 313 313 313 312 312 311 310 309 308 306 304 301 298 296 293 290 287 284 283 283 282 283 283 284 285 286 287 288 290 291 291 292
312 312 313 313 313 313 313 313 313 313 314 313 313 312 312 311 310 309 307 306 304 301 298 296 293 291 287 284 283 282 282 282 283 284 285 287 288 289 290 291 292 293
312 313 313 314 314 314 314 314 314 314 314 314 313 313 312 311 310 309 307 306 303 301 299 296 294 291 288 284 283 282 281 282 282 284 285 287 288 289 291 292 293 294